SCP
0 0 0 0 0 0 0 0 0 0 0 0 0 0 0 0 0 0 0 0 0 0 0 0 0 0 0 0 0 0 0 0 0 0 0 0 0 0 0 0 0 0 0 0
0 0 0 0 0 0 0 0 0 0 0 0 0 0 0 0 0 0 0 0 0 0 0 0 0 0 0 0 0 0 0 0 0 0 0 0 0 0 0 0 0 0 0 0
0 0 0 0 0 0 0 0 0 0 0 0 0 0 0 0 0 0 0 0 0 0 0 0 0 0 0 0 0 0 0 0 0 0 0 0 0 0 0 0 0 0 0 0
0 0 0 0 0 0 0 0 0 0 0 0 0 0 0 0 0 0 0 0 0 0 0 0 0 0 0 0 0 0 0 0 0 0 0 0 0 0 0 0 0 0 0 0
0 0 0 0 0 0 0 0 0 0 0 0 0 0 0 0 0 0 0 0 0 0 0 0 0 0 0 0 0 0 0 0 0 0 0 0 0 0 0 0 0 0 0 0
0 0 0 0 0 0 0 0 0 0 0 0 0 0 0 0 0 0 0 0 0 0 0 0 0 0 0 0 0 0 0 0 0 0 0 0 0 0 0 0 0 0 0 0
0 0 0 0 0 0 0 0 0 0 0 0 0 0 0 0 0 0 0 0 0 0 0 0 0 0 0 0 0 0 0 0 0 0 0 0 0 0 0 0 0 0 0 0
0 0 0 0 0 0 0 0 0 0 0 0 0 0 0 0 0 0 0 0 0 0 0 -0 0 0 0 0 0 0 0 0 0 0 0 0 0 0 0 0 0 0 0 0
0 0 0 0 0 0 0 0 0 0 0 0 0 0 0 0 0 0 0 0 0 0 0 0 0 0 0 0 0 0 0 0 0 0 0 0 0 0 0 0 0 0 0 0
0 0 0 0 0 0 0 0 0 0 0 0 0 0 0 0 0 0 0 0 0 0 0 0 0 0 0 0 0 0 0 0 0 0 0 0 0 0 0 0 0 0 0 0
0 0 0 0 0 0 0 0 0 0 0 0 0 0 0 0 0 0 0 0 0 0 0 0 0 0 0 0 0 0 0 0 0 0 0 0 0 0 0 0 0 0 0 0
0 0 0 0 0 0 0 0 0 0 0 0 0 0 0 0 0 0 0 0 0 0 0 0 0 0 0 0 0 0 0 0 0 0 0 0 0 0 0 0 0 0 0 0
0 0 0 0 0 0 0 0 0 0 0 0 0 0 0 0 0 0 0 0 0 0 0 0 0 0 0 0 0 0 0 0 0 0 0 0 0 0 0 0 0 0 0 0
0 0 0 0 0 0 0 0 0 0 0 0 0 0 0 0 0 0 0 0 0 0 0 0 0 0 0 0 0 0 0 0 0 0 0 0 0 0 0 0 0 0 0 0
0 0 0 0 0 0 0 0 0 0 0 0 0 0 0 0 0 0 0 0 0 0 0 0 0 0 0 0 0 0 0 0 0 0 0 0 0 0 0 0 0 0 0 0
0 0 0 0 0 0 0 0 0 0 0 0 0 0 0 0 0 0 0 0 0 0 0 0 0 0 0 0 0 0 0 0 0 0 0 0 0 0 0 0 0 0 0 0
0 0 0 0 0 0 0 0 0 0 0 0 0 0 0 0 0 0 0 0 0 0 0 0 0 0 0 0 0 0 0 0 0 0 0 0 0 0 0 0 0 0 0 0
0 0 0 0 0 0 0 0 0 0 0 0 0 0 0 0 0 0 0 0 0 0 0 0 0 0 0 0 0 0 0 0 0 0 0 0 0 0 0 0 0 0 0 0
0 0 0 0 0 0 0 0 0 0 0 0 0 0 0 0 0 0 0 0 0 0 0 0 0 0 0 0 0 0 0 0 0 0 0 0 0 0 0 0 0 0 0 0
0 0 0 0 0 0 0 0 0 0 0 0 0 0 0 0 0 0 0 0 0 0 0 0 0 0 0 0 0 0 0 0 0 0 0 0 0 0 0 0 0 0 0 0
0 0 0 0 0 0 0 0 0 0 0 0 0 0 0 0 0 0 0 0 0 0 0 0 0 0 0 0 0 0 0 0 0 0 0 0 0 0 0 0 0 0 0 0
0 0 0 0 0 0 0 0 0 0 0 0 0 0 0 0 0 0 0 0 0 0 0 0 0 0 0 0 0 0 0 0 0 0 0 0 0 0 0 0 0 0 0 0
0 0 0 0 0 0 0 0 0 0 0 0 0 0 0 0 0 0 0 0 0 0 0 0 0 0 0 0 0 0 0 0 0 0 0 0 0 0 0 0 0 0 0 0
0 0 0 0 0 0 0 0 0 0 0 0 0 0 0 0 0 0 0 0 0 0 0 0 0 0 0 0 0 0 0 0 0 0 0 0 0 0 0 0 0 0 0 0
0 0 0 0 0 0 0 0 0 0 0 0 0 0 0 0 0 0 0 0 0 0 0 0 0 0 0 0 0 0 0 0 0 0 0 0 0 0 0 0 0 0 0 0
0 0 0 0 0 0 0 0 0 0 0 0 0 0 0 0 0 0 0 0 0 0 0 0 0 0 0 0 0 0 0 0 0 0 0 0 0 0 0 0 0 0 0 0
Wind_Speed
6 4 6 6 3 6 7 8 12 13 7 4 9 16 19 14 6 5 5 5 4 3 3 5 12 12 12 12 12 13 14 13 11 10 10 11 10 8 7 8 10 12 12 13
6 8 6 3 4 4 7 10 12 10 6 9 12 15 16 5 2 3 5 6 7 7 5 3 6 9 10 11 11 12 13 13 12 10 9 7 6 6 6 6 9 12 13 13
10 5 1 3 6 8 9 8 8 8 10 9 6 9 3 5 7 7 7 7 7 7 6 5 3 6 8 9 11 10 12 13 13 10 6 5 5 5 7 9 10 11 13 14
7 1 2 3 7 6 8 3 5 7 7 6 5 6 7 3 7 8 7 7 7 6 5 4 2 3 6 8 8 10 10 11 11 11 10 11 11 13 13 8 8 10 12 13
6 1 2 5 4 3 4 5 6 6 5 6 5 4 8 2 6 6 6 6 6 6 5 4 2 1 3 5 7 8 9 9 10 11 12 11 12 11 6 7 9 11 11 13
11 2 1 2 1 1 5 8 10 4 3 5 3 3 6 1 5 5 6 6 6 6 6 5 4 2 0 2 4 6 7 8 9 11 12 13 14 10 9 10 10 9 9 10
6 8 4 1 4 5 4 5 4 1 3 4 2 2 7 0 6 6 5 5 6 6 6 6 6 4 2 1 3 5 7 7 8 9 11 12 13 12 13 11 10 10 9 10
4 3 7 5 2 2 3 2 3 4 4 5 3 5 6 1 5 6 6 5 5 6 5 5 5 5 3 1 1 4 6 7 8 9 10 10 11 10 10 11 10 10 10 10
4 1 3 2 1 1 3 2 2 2 6 5 6 5 4 1 4 5 4 5 5 5 5 5 5 4 4 3 1 2 4 5 7 8 9 9 10 10 11 10 10 10 9 8
4 5 3 4 2 3 3 5 2 3 4 5 6 5 2 1 1 3 4 5 4 5 5 5 4 4 3 2 1 1 2 4 5 7 7 7 9 10 10 10 12 11 11 10
2 4 2 4 7 7 5 3 4 4 5 3 5 6 3 5 3 4 4 5 5 5 4 4 3 3 3 3 2 2 2 3 3 4 5 6 7 8 9 9 11 11 11 11
1 3 5 6 1 3 1 3 4 4 6 5 6 8 5 2 4 5 4 4 4 4 3 3 4 4 4 4 4 3 2 2 3 3 4 6 7 7 8 9 10 10 11 11
1 2 5 3 2 2 1 4 5 5 4 5 6 11 4 5 6 5 4 3 3 3 3 3 4 5 5 5 5 5 3 3 3 3 4 6 6 7 8 9 9 9 10 10
2 4 5 7 8 6 6 7 7 7 7 9 12 15 13 12 8 5 5 5 4 3 3 3 4 5 6 6 6 5 5 4 4 4 5 6 7 7 8 8 8 9 9 10
2 5 8 11 11 11 13 13 11 13 13 15 17 18 16 8 4 5 5 5 5 5 5 4 5 6 6 6 6 6 6 5 5 5 7 7 8 8 8 8 8 9 9 10
3 5 6 10 11 12 17 18 16 16 15 15 16 16 6 2 4 5 6 7 7 6 5 6 7 7 7 7 6 6 6 6 5 6 8 8 8 8 9 9 9 9 10 9
5 4 4 6 6 10 13 12 11 8 7 7 9 6 3 4 5 6 7 8 7 5 6 7 7 7 7 7 6 7 7 6 6 8 9 9 9 10 10 10 10 10 10 10
5 4 3 4 4 10 11 5 3 3 5 6 6 3 4 3 3 5 7 6 7 8 8 8 7 7 7 7 7 7 6 7 8 9 10 10 10 10 10 10 10 10 9 9
3 5 4 3 5 11 10 5 2 2 5 3 2 4 5 6 6 6 6 7 8 8 8 7 7 6 7 7 7 6 7 8 9 10 11 10 9 9 9 10 11 10 9 9
1 2 4 4 5 8 6 2 3 3 3 4 5 5 7 8 7 6 7 8 8 8 7 7 7 7 7 7 6 8 9 10 11 11 10 8 8 9 10 11 11 9 9 10
3 3 5 6 6 10 4 3 1 2 2 3 5 6 6 5 6 8 9 8 8 8 8 7 7 6 7 7 8 10 11 11 11 9 9 9 9 10 11 11 9 9 9 9
7 6 7 5 6 9 1 2 1 4 5 6 6 6 7 7 9 9 9 8 8 7 7 7 7 7 7 8 9 11 12 11 10 10 10 10 10 10 9 11 10 9 9 10
6 6 4 6 7 3 1 3 5 6 7 7 7 8 8 9 9 10 8 7 7 7 7 6 7 9 9 8 9 13 14 12 11 10 11 11 11 10 10 10 11 9 8 8
5 5 5 5 5 6 8 8 7 8 8 8 8 9 8 9 9 9 8 7 6 6 7 7 8 10 12 11 11 12 12 11 11 11 11 10 11 11 10 8 8 8 8 8
6 5 5 9 9 9 5 7 10 10 10 10 9 8 8 8 8 8 7 6 6 7 7 7 9 12 14 13 12 11 11 11 11 11 11 10 10 11 10 9 8 10 9 10
6 8 8 10 8 8 9 9 10 10 9 9 9 9 7 7 8 7 6 6 7 8 9 9 10 11 13 13 13 12 10 10 11 10 10 9 9 9 9 10 11 14 16 21
Wind_Direction
220 233 255 277 325 333 327 304 296 293 304 330 287 288 294 301 310 334 340 340 334 302 289 187 178 176 173 178 182 183 185 187 186 190 195 199 206 205 202 198 195 194 193 194
253 246 266 340 357 311 286 284 287 294 340 321 287 288 285 277 53 45 30 25 19 11 7 40 140 158 170 178 185 187 188 189 193 198 198 198 198 204 207 205 204 199 197 196
261 258 85 327 298 281 275 279 302 322 326 279 287 303 306 105 84 73 62 54 47 38 28 27 104 157 171 183 189 193 192 191 193 190 181 187 194 204 210 210 211 207 202 202
276 266 46 283 274 280 286 350 336 319 322 308 328 304 293 129 91 75 64 55 50 44 47 40 48 161 186 195 190 193 192 193 190 187 194 196 204 214 215 211 210 209 209 208
270 130 222 270 302 351 299 336 284 281 289 286 254 240 279 138 93 86 77 68 62 49 49 44 44 205 204 193 188 191 194 198 193 195 200 207 218 224 220 213 214 213 213 214
250 219 190 306 15 245 298 290 262 223 266 263 217 213 284 56 101 96 81 69 60 47 41 34 31 29 261 183 182 186 197 208 202 201 205 211 221 222 221 221 220 217 215 215
243 189 158 170 270 196 239 302 321 257 223 234 121 242 255 233 107 105 94 75 60 51 43 29 23 12 356 209 197 193 202 215 212 209 213 217 221 221 227 227 225 222 222 219
287 187 161 184 265 345 309 321 317 304 302 320 288 244 256 109 125 127 121 100 71 56 47 39 26 14 7 4 197 199 210 220 218 217 221 223 222 223 231 231 230 230 229 224
309 53 109 108 73 275 283 228 61 320 284 267 253 249 261 143 132 136 120 91 72 60 53 42 32 24 18 18 5 215 219 224 222 222 224 226 226 227 231 231 232 237 238 229
321 303 173 140 185 224 285 327 307 245 273 284 277 269 255 50 23 65 58 59 61 61 50 38 25 14 10 14 352 259 227 231 229 224 224 229 229 230 231 230 234 235 236 231
287 277 238 176 206 195 176 205 224 257 271 274 286 272 337 342 28 52 47 53 60 57 46 29 7 356 1 359 343 314 265 249 248 242 239 240 240 236 234 235 237 237 236 232
230 297 277 256 74 70 149 241 240 246 262 264 282 276 292 327 72 61 53 54 73 66 40 12 355 352 352 344 331 321 302 284 266 256 255 253 250 245 242 243 243 238 237 234
47 259 284 266 75 48 217 234 241 258 277 261 259 267 297 345 1 36 56 50 58 55 26 1 352 343 338 332 325 321 324 320 301 284 275 271 267 259 254 252 250 244 241 239
3 255 245 265 290 310 283 262 243 238 251 257 248 271 295 310 331 10 32 25 16 359 344 344 338 329 326 321 319 324 328 325 322 310 293 284 277 271 267 264 260 254 247 244
222 256 261 271 284 291 287 280 271 260 257 264 273 279 290 309 356 21 12 2 347 325 322 337 336 323 318 318 321 325 322 323 324 311 298 288 284 281 279 276 270 264 256 251
213 264 279 274 277 281 279 271 265 263 260 261 271 278 294 6 38 13 357 335 310 304 326 338 327 318 317 318 317 318 313 308 311 304 293 289 289 286 282 278 275 270 264 257
206 224 277 275 296 305 275 261 254 242 241 256 272 289 14 22 22 358 327 301 299 327 336 325 318 317 315 312 311 306 296 302 306 294 288 286 283 280 277 277 276 271 267 262
242 253 267 285 309 251 249 284 280 278 287 297 296 333 33 19 348 314 299 321 343 337 326 321 317 313 308 303 301 296 302 305 297 290 285 281 276 274 275 273 271 270 267 262
250 221 236 252 265 275 273 287 332 318 291 305 332 11 1 339 327 310 332 353 333 323 319 315 311 308 306 304 306 315 310 301 294 287 282 278 275 277 278 276 274 272 270 267
352 209 212 221 234 254 276 77 39 13 294 36 29 356 339 344 324 302 332 329 321 319 316 311 310 309 307 308 322 317 302 295 288 284 282 285 287 285 282 280 279 276 271 270
158 184 215 234 245 262 280 126 72 265 294 358 349 335 333 316 287 302 321 319 313 309 309 310 311 307 304 314 315 300 293 288 287 291 294 294 290 285 284 284 281 279 276 274
177 192 202 201 220 254 148 124 243 291 329 336 340 338 326 312 309 312 312 312 312 311 311 313 311 308 307 306 303 298 295 293 295 296 294 292 290 289 290 287 286 281 279 279
215 221 217 203 222 270 68 327 324 343 343 347 342 332 325 315 310 311 311 312 312 311 311 315 314 306 301 300 299 296 296 298 299 298 296 295 294 291 289 289 291 290 285 280
249 244 252 277 282 312 322 328 348 358 347 337 333 328 323 313 312 313 312 310 309 311 313 311 308 303 300 298 292 288 295 300 300 298 297 295 295 294 291 288 287 286 284 280
287 315 295 280 289 300 314 344 347 343 340 335 330 324 318 314 310 308 307 308 310 308 303 301 297 294 294 296 295 295 297 299 298 295 295 295 293 291 292 287 283 284 271 273
248 262 268 279 309 317 321 337 342 336 331 326 321 317 314 308 302 305 304 303 300 298 297 296 292 290 295 298 297 297 296 297 298 298 297 295 293 293 292 292 291 284 283 290